Temp
80 82 80 73 65 60 57 62 69 68 69 73 77 73 70 70 66 57 71 76 76 76 79 81 82 83 83 83 83 83 83 83 83 83 84 84 83 83 83 83 84 84 84 84 83 84 84 84 84
82 84 74 67 59 53 57 68 66 71 73 75 77 75 71 65 71 70 70 76 77 77 78 80 82 83 83 83 83 83 84 83 83 83 83 83 84 84 84 84 84 84 84 84 84 84 84 84 84
84 83 68 60 56 54 56 67 67 74 77 76 74 77 71 64 71 72 74 77 78 77 76 79 82 83 83 83 83 83 83 83 83 83 84 84 84 84 84 83 83 84 84 84 83 84 84 83 84
80 73 68 58 58 62 63 66 73 73 76 77 75 68 72 76 73 74 77 78 76 75 75 82 83 84 84 84 84 83 83 83 83 83 83 83 84 84 84 84 84 83 83 84 84 84 84 83 83
77 68 59 58 60 66 68 73 74 73 73 75 75 66 65 73 76 77 76 77 74 74 75 80 83 83 83 83 83 83 83 83 83 83 83 84 84 83 83 83 83 84 84 83 83 84 84 83 83
70 68 57 56 62 70 73 76 75 75 74 75 71 68 65 74 74 75 77 75 76 75 77 78 82 83 83 84 83 83 83 83 83 83 83 83 84 83 83 83 84 84 84 83 83 83 83 83 83
70 64 59 61 64 67 71 77 73 71 73 72 76 63 65 71 75 76 75 74 75 76 76 75 78 82 84 84 84 84 84 83 83 83 83 83 83 83 83 83 83 84 84 84 83 83 83 83 83
72 68 63 63 62 66 75 77 79 76 74 81 77 63 61 70 76 74 74 73 74 74 76 74 75 78 78 79 84 84 84 84 84 84 83 83 84 83 82 82 83 84 84 84 83 83 83 83 83
79 63 60 65 65 69 76 73 79 82 77 78 79 73 74 75 75 71 71 71 72 74 73 74 74 74 75 76 80 83 84 84 84 83 84 80 74 76 77 79 81 83 84 84 83 83 82 82 83
71 62 67 75 74 71 75 74 75 74 74 71 71 74 75 74 72 69 69 69 70 71 72 73 73 75 75 77 76 77 77 76 73 73 73 73 71 72 75 77 80 82 83 83 83 83 83 83 77
74 68 75 78 78 78 74 74 78 71 68 70 67 69 71 72 71 70 71 72 71 73 74 74 75 75 75 75 74 73 71 72 71 72 71 73 72 71 71 71 71 71 77 75 78 78 78 78 76
73 79 80 78 79 77 73 76 74 75 75 78 74 73 72 70 70 71 71 72 71 72 74 74 76 74 74 75 73 73 70 70 69 70 72 70 70 69 70 70 71 70 72 74 74 74 75 75 76
76 78 80 80 79 77 79 74 74 74 78 78 76 74 72 71 72 74 74 73 73 72 74 74 74 73 73 73 73 71 70 70 70 70 71 70 69 69 70 70 70 70 71 72 73 73 73 73 75
79 79 79 80 78 79 75 73 75 74 77 75 73 72 72 73 73 73 74 72 72 73 73 75 74 74 73 73 72 71 70 70 71 70 70 70 69 68 70 70 70 70 70 71 72 72 72 73 74
80 74 76 77 76 74 77 70 70 74 76 73 72 72 73 74 75 74 75 73 73 73 74 74 74 75 73 73 73 71 70 70 70 69 70 69 68 68 70 71 71 72 72 72 73 73 71 72 74
74 72 64 74 75 75 73 61 71 75 74 71 73 74 74 74 75 77 77 75 75 73 73 74 78 75 73 72 71 72 70 70 69 69 70 70 70 70 70 70 72 74 73 71 72 72 72 72 73
68 59 62 68 76 74 69 62 73 75 74 71 72 73 75 75 76 78 78 77 76 74 72 74 75 74 73 71 71 71 71 69 69 71 71 71 72 73 70 71 72 74 73 71 72 72 72 72 73
61 61 66 64 71 73 67 66 71 74 74 72 72 73 74 75 76 79 79 78 77 74 72 73 75 73 72 71 70 70 70 70 70 71 72 73 73 73 73 71 72 73 72 71 72 71 72 72 73
66 66 66 70 75 70 68 66 69 73 74 73 72 73 74 75 80 79 81 80 77 75 73 73 73 71 71 70 70 69 69 70 70 71 73 73 73 74 73 72 72 71 71 71 72 72 71 70 72
66 66 66 71 74 71 66 66 70 73 73 75 73 71 73 76 74 75 76 77 77 75 74 73 73 71 72 72 71 71 71 71 72 72 72 73 74 74 73 73 72 72 71 71 71 72 71 71 72
64 63 67 67 70 70 66 62 66 71 74 75 75 75 74 75 74 73 74 76 77 74 74 73 73 72 73 73 72 71 71 71 70 70 71 72 73 74 74 73 71 71 71 70 71 71 71 70 71
64 72 74 68 63 55 65 53 60 66 69 72 75 73 74 72 75 75 74 74 76 77 76 73 72 72 73 73 72 71 70 69 70 71 72 72 73 72 73 72 72 72 71 71 72 73 72 71 69
71 73 70 68 60 56 59 56 59 62 64 69 73 73 71 72 75 74 76 75 77 77 76 74 71 72 73 73 73 71 70 70 71 71 71 71 72 73 73 71 72 72 73 72 72 73 71 71 71
76 69 64 58 55 50 53 56 58 57 64 70 71 73 72 71 73 74 77 76 75 76 75 73 71 71 72 73 72 71 71 71 70 71 70 71 71 71 71 72 70 71 71 72 73 73 73 72 71
68 62 52 51 49 50 52 59 59 62 65 67 70 71 71 71 72 72 72 74 73 75 74 74 71 70 72 73 73 73 72 71 71 71 70 69 69 70 71 70 69 70 71 71 72 72 72 72 71
67 63 54 48 46 52 56 52 61 65 66 67 71 71 71 70 68 72 73 72 72 74 75 76 71 71 71 71 71 72 73 72 72 73 72 69 68 71 73 72 71 72 71 71 72 72 72 72 72
62 57 59 50 44 49 51 57 64 64 65 66 66 68 69 68 69 69 71 70 71 73 72 75 75 73 70 67 67 69 72 71 72 73 73 71 72 72 73 73 72 72 72 71 70 69 71 73 73
62 66 57 52 46 43 48 50 53 59 62 64 64 65 66 67 67 68 69 70 71 73 69 70 68 65 66 66 67 67 67 68 72 73 73 73 73 72 72 73 73 73 72 73 71 71 72 72 72
62 57 53 53 50 47 45 52 59 59 62 62 63 65 68 66 66 66 67 70 71 70 68 67 66 65 66 67 67 67 67 68 69 72 72 73 73 72 73 73 73 73 73 73 73 72 73 73 73
62 56 55 53 50 46 48 53 61 59 61 63 64 65 65 65 64 65 67 69 68 68 68 67 66 66 66 66 68 66 68 67 68 70 72 72 71 72 73 73 72 72 72 72 72 71 71 71 71
MSLP
1006.08 1006.30 1006.69 1007.18 1008.19 1008.63 1009.15 1009.15 1008.38 1008.29 1008.67 1008.72 1009.41 1009.74 1010.46 1011.30 1012.11 1013.32 1013.10 1013.37 1013.79 1014.52 1014.89 1015.17 1015.31 1015.66 1016.03 1016.28 1016.51 1016.70 1016.87 1017.07 1017.21 1017.31 1017.45 1017.64 1017.72 1017.82 1017.94 1018.00 1017.98 1018.05 1018.10 1018.06 1018.25 1018.24 1018.27 1018.34 1018.47
1005.95 1006.33 1006.88 1007.64 1008.69 1009.48 1009.56 1009.01 1008.80 1008.40 1008.43 1008.48 1009.05 1009.61 1010.34 1011.49 1012.09 1012.90 1013.40 1013.58 1013.87 1014.42 1015.00 1015.31 1015.57 1015.91 1016.31 1016.56 1016.76 1017.03 1017.27 1017.43 1017.53 1017.63 1017.76 1017.94 1018.06 1018.06 1018.12 1018.24 1018.27 1018.23 1018.31 1018.36 1018.50 1018.55 1018.63 1018.68 1018.84
1005.92 1006.25 1007.37 1008.40 1009.58 1009.94 1009.75 1009.31 1008.79 1008.54 1008.43 1008.61 1009.22 1009.76 1010.80 1012.04 1012.39 1012.98 1013.20 1013.52 1013.94 1014.57 1015.13 1015.50 1015.85 1016.17 1016.52 1016.81 1016.95 1017.16 1017.45 1017.68 1017.80 1017.89 1018.05 1018.19 1018.31 1018.32 1018.25 1018.32 1018.39 1018.47 1018.53 1018.63 1018.76 1018.82 1018.90 1018.93 1019.01
1005.98 1006.84 1008.21 1008.80 1009.66 1009.85 1009.53 1009.22 1008.73 1008.62 1008.67 1008.73 1009.46 1010.62 1011.48 1012.03 1012.70 1012.99 1013.53 1013.87 1014.23 1014.81 1015.30 1015.60 1016.01 1016.34 1016.70 1016.97 1017.12 1017.28 1017.49 1017.71 1017.87 1018.02 1018.24 1018.35 1018.42 1018.48 1018.50 1018.52 1018.53 1018.65 1018.67 1018.74 1018.87 1019.02 1019.13 1019.24 1019.32
1006.18 1007.36 1008.66 1009.40 1009.67 1009.54 1009.17 1008.95 1008.75 1008.61 1008.88 1009.34 1009.65 1011.38 1012.31 1012.88 1012.75 1013.33 1013.86 1014.25 1014.44 1014.98 1015.40 1015.66 1015.98 1016.44 1016.83 1017.10 1017.30 1017.41 1017.51 1017.67 1017.84 1018.06 1018.27 1018.39 1018.42 1018.48 1018.54 1018.55 1018.61 1018.69 1018.74 1018.83 1018.97 1019.14 1019.29 1019.41 1019.49
1006.65 1007.73 1009.12 1009.51 1009.36 1008.84 1008.47 1008.40 1008.48 1008.62 1009.00 1009.58 1010.52 1011.52 1013.24 1013.41 1013.39 1013.81 1014.19 1014.61 1014.69 1015.05 1015.47 1015.73 1016.02 1016.40 1016.78 1017.06 1017.29 1017.47 1017.58 1017.73 1017.86 1018.06 1018.29 1018.38 1018.48 1018.57 1018.66 1018.69 1018.69 1018.87 1018.93 1019.00 1018.98 1019.14 1019.32 1019.44 1019.55
1006.90 1007.93 1008.99 1009.21 1009.00 1008.45 1008.11 1008.09 1008.26 1008.74 1009.11 1009.56 1010.23 1012.04 1013.54 1013.78 1013.94 1014.23 1014.54 1014.96 1015.00 1015.23 1015.61 1015.86 1016.08 1016.36 1016.61 1016.93 1017.18 1017.33 1017.50 1017.77 1017.92 1018.08 1018.24 1018.35 1018.57 1018.67 1018.76 1018.83 1018.84 1018.85 1018.86 1019.06 1019.12 1019.15 1019.28 1019.44 1019.59
1006.91 1007.78 1008.60 1008.78 1008.65 1008.01 1007.61 1008.00 1008.03 1008.48 1009.07 1009.41 1009.87 1011.85 1013.21 1013.64 1013.86 1014.60 1014.92 1015.31 1015.43 1015.51 1015.69 1015.95 1016.20 1016.41 1016.72 1016.95 1017.13 1017.32 1017.50 1017.71 1017.91 1018.03 1018.30 1018.47 1018.53 1018.60 1018.82 1019.00 1019.02 1019.02 1018.91 1018.99 1019.08 1019.14 1019.21 1019.42 1019.54
1006.81 1007.70 1008.16 1008.00 1008.00 1007.53 1007.31 1007.84 1008.25 1008.37 1009.01 1009.65 1010.14 1010.97 1011.91 1013.24 1013.89 1014.83 1015.22 1015.64 1015.74 1015.81 1015.95 1016.07 1016.34 1016.53 1016.73 1016.93 1017.00 1017.25 1017.45 1017.63 1017.77 1018.10 1018.31 1018.65 1018.98 1019.01 1019.14 1019.25 1019.21 1019.12 1019.01 1018.95 1018.97 1019.09 1019.19 1019.29 1019.46
1006.68 1007.27 1006.91 1006.34 1006.53 1006.95 1007.24 1007.74 1008.12 1008.81 1009.43 1010.49 1011.04 1011.57 1012.51 1013.27 1014.11 1014.56 1014.93 1015.29 1015.58 1015.80 1015.98 1016.07 1016.14 1016.41 1016.74 1016.89 1017.04 1017.27 1017.40 1017.64 1017.88 1018.23 1018.63 1018.81 1019.17 1019.18 1019.13 1019.18 1019.17 1019.01 1018.93 1018.92 1018.84 1018.93 1019.07 1019.18 1019.53
1006.02 1005.85 1005.68 1005.73 1006.03 1006.66 1007.30 1007.85 1008.18 1008.86 1009.73 1010.27 1010.97 1012.06 1012.83 1013.56 1014.29 1014.49 1014.70 1014.73 1014.83 1015.46 1015.76 1015.96 1016.26 1016.49 1016.67 1016.91 1017.23 1017.22 1017.36 1017.68 1018.03 1018.29 1018.63 1018.73 1018.92 1019.05 1019.04 1019.21 1019.29 1019.22 1018.95 1019.02 1018.86 1019.05 1019.18 1019.37 1019.51
1005.23 1004.78 1005.01 1005.56 1006.01 1006.77 1007.47 1007.81 1008.18 1008.55 1008.77 1009.40 1010.55 1011.26 1012.34 1013.50 1013.82 1014.01 1014.39 1014.76 1015.05 1015.27 1015.60 1015.98 1016.03 1016.42 1016.65 1016.77 1017.01 1017.09 1017.57 1018.02 1018.34 1018.69 1018.73 1018.82 1018.83 1018.92 1019.06 1019.12 1019.15 1019.20 1019.09 1018.99 1019.04 1019.20 1019.29 1019.38 1019.43
1004.53 1004.75 1005.14 1005.58 1006.09 1006.75 1007.49 1007.92 1008.21 1008.58 1008.97 1009.91 1010.85 1011.65 1012.31 1012.94 1013.31 1013.69 1014.06 1014.70 1014.94 1015.08 1015.36 1015.81 1016.15 1016.36 1016.45 1016.76 1016.97 1017.20 1017.55 1017.68 1018.10 1018.50 1018.75 1018.92 1018.93 1018.98 1018.88 1018.85 1018.94 1019.03 1018.97 1018.86 1018.97 1019.11 1019.19 1019.22 1019.21
1004.36 1004.98 1005.70 1006.13 1006.59 1007.02 1007.67 1008.31 1008.49 1009.12 1009.43 1010.18 1010.98 1011.65 1012.20 1012.48 1012.85 1013.41 1013.77 1014.25 1014.66 1015.01 1015.25 1015.73 1016.01 1016.09 1016.38 1016.68 1016.90 1017.07 1017.41 1017.74 1018.10 1018.43 1018.58 1018.64 1018.75 1018.87 1018.70 1018.61 1018.68 1018.80 1018.72 1018.55 1018.67 1018.84 1019.03 1019.07 1019.04
1004.50 1005.69 1006.39 1006.83 1007.12 1007.52 1007.89 1008.71 1008.76 1009.12 1009.69 1010.39 1011.07 1011.62 1012.19 1012.45 1012.77 1012.69 1013.00 1013.74 1014.22 1014.53 1015.08 1015.36 1015.68 1015.80 1016.28 1016.52 1016.82 1017.11 1017.52 1017.92 1018.13 1018.26 1018.40 1018.49 1018.53 1018.53 1018.54 1018.38 1018.41 1018.38 1018.37 1018.41 1018.42 1018.50 1018.84 1018.77 1018.64
1005.42 1006.05 1006.76 1007.17 1007.26 1007.65 1008.02 1008.67 1008.91 1009.30 1009.86 1010.66 1011.14 1011.56 1011.79 1011.94 1011.86 1012.24 1012.81 1013.41 1013.80 1014.46 1015.08 1015.45 1015.77 1016.11 1016.42 1016.69 1016.94 1017.15 1017.52 1017.83 1018.08 1018.19 1018.12 1018.04 1018.17 1018.27 1018.40 1018.31 1018.04 1017.90 1017.90 1018.16 1018.15 1018.21 1018.30 1018.43 1018.51
1006.51 1006.77 1006.99 1007.22 1007.20 1007.50 1008.31 1008.71 1008.75 1009.49 1009.90 1010.46 1010.93 1011.26 1011.42 1011.56 1011.85 1012.06 1012.49 1013.03 1013.38 1014.18 1014.87 1015.24 1015.52 1015.97 1016.34 1016.45 1016.61 1016.81 1017.00 1017.45 1017.87 1017.95 1017.83 1017.77 1017.75 1017.85 1018.06 1018.08 1017.95 1017.83 1017.72 1017.79 1017.96 1018.02 1018.06 1018.26 1018.21
1006.98 1007.12 1007.07 1007.14 1007.25 1007.60 1008.25 1008.51 1008.64 1009.20 1009.62 1010.05 1010.38 1010.80 1011.03 1011.20 1010.99 1011.29 1012.00 1012.73 1013.25 1013.96 1014.65 1014.92 1015.27 1015.68 1016.06 1016.62 1016.77 1016.80 1016.85 1016.69 1016.78 1017.32 1017.62 1017.59 1017.54 1017.65 1017.83 1017.77 1017.77 1017.75 1017.62 1017.64 1017.81 1017.96 1017.86 1017.77 1017.90
1006.55 1006.76 1006.87 1006.70 1006.83 1007.44 1007.79 1008.69 1008.75 1008.92 1009.33 1009.64 1009.96 1010.20 1010.30 1010.28 1009.88 1011.04 1011.59 1012.21 1012.84 1013.43 1014.30 1014.48 1014.99 1015.48 1016.12 1016.60 1016.95 1016.96 1016.81 1016.63 1016.61 1016.38 1016.60 1017.02 1017.21 1017.29 1017.48 1017.49 1017.55 1017.56 1017.69 1017.55 1017.70 1017.73 1017.75 1017.91 1017.85
1006.01 1006.33 1006.36 1006.40 1006.56 1007.33 1007.87 1008.58 1008.66 1008.72 1008.23 1008.63 1009.22 1009.62 1009.62 1009.91 1010.40 1010.85 1011.35 1011.98 1012.47 1012.94 1013.48 1014.20 1014.76 1015.17 1015.47 1016.16 1016.08 1016.15 1016.33 1016.25 1016.10 1016.10 1016.06 1016.07 1016.52 1016.78 1016.89 1016.80 1016.88 1016.93 1017.23 1017.40 1017.50 1017.59 1017.54 1017.57 1017.54
1005.61 1005.88 1005.93 1006.52 1007.00 1007.73 1008.14 1008.67 1008.54 1008.42 1008.45 1008.71 1008.78 1009.00 1009.43 1009.57 1010.02 1010.50 1010.94 1011.29 1011.92 1012.60 1012.82 1013.48 1014.15 1014.49 1015.22 1015.25 1015.85 1016.06 1016.26 1016.33 1016.18 1016.14 1015.92 1015.86 1015.99 1016.18 1016.29 1016.37 1016.34 1016.51 1016.84 1017.03 1017.11 1017.22 1017.19 1017.19 1017.41
1005.11 1004.98 1005.68 1006.65 1007.57 1008.23 1008.39 1009.11 1008.52 1008.11 1007.97 1008.21 1008.25 1008.63 1008.84 1009.38 1009.64 1010.08 1010.60 1010.89 1011.25 1011.34 1012.34 1012.84 1013.52 1014.27 1014.51 1014.80 1015.58 1015.72 1016.00 1016.22 1016.12 1015.87 1015.70 1015.76 1015.68 1016.00 1016.07 1016.22 1016.05 1016.26 1016.50 1016.80 1016.82 1016.92 1016.90 1017.02 1017.20
1004.78 1005.00 1005.96 1006.90 1008.08 1008.67 1009.21 1009.58 1008.09 1008.24 1008.19 1007.37 1007.58 1007.95 1008.13 1008.63 1009.16 1009.61 1009.91 1010.42 1010.50 1011.35 1011.63 1012.22 1013.02 1013.79 1014.05 1014.34 1014.96 1015.59 1015.66 1015.81 1015.84 1015.84 1015.76 1015.74 1015.40 1015.48 1015.73 1016.22 1016.09 1016.02 1016.04 1016.30 1016.42 1016.64 1016.83 1016.84 1016.78
1004.43 1005.54 1006.87 1008.00 1009.10 1010.11 1009.62 1010.01 1008.99 1008.78 1007.70 1007.12 1007.20 1007.50 1007.75 1008.37 1008.66 1009.16 1009.66 1010.43 1010.64 1011.24 1011.93 1012.04 1012.97 1012.88 1013.36 1013.97 1014.39 1014.80 1014.94 1015.22 1015.66 1015.75 1015.71 1015.70 1015.61 1015.43 1015.26 1015.73 1016.02 1015.94 1016.09 1016.30 1016.39 1016.52 1016.72 1016.83 1016.75
1005.06 1006.26 1007.77 1009.28 1010.31 1010.48 1010.00 1010.42 1008.91 1008.22 1007.87 1007.41 1007.24 1007.13 1007.20 1007.89 1008.66 1009.40 1010.20 1010.73 1012.02 1012.11 1012.08 1012.58 1012.80 1012.98 1012.99 1013.65 1014.04 1014.16 1014.50 1014.81 1014.88 1015.14 1015.51 1015.90 1015.99 1015.57 1015.48 1015.66 1015.63 1015.73 1015.51 1015.60 1015.85 1016.31 1016.45 1016.67 1016.72
1005.57 1006.56 1008.02 1009.60 1011.00 1010.65 1010.49 1010.12 1008.34 1008.06 1007.66 1007.27 1007.07 1006.81 1007.31 1008.15 1009.73 1010.46 1010.80 1011.16 1011.17 1011.04 1011.21 1012.02 1012.78 1012.69 1013.57 1013.81 1014.84 1014.62 1014.23 1014.39 1014.36 1014.64 1014.96 1015.14 1015.50 1015.54 1015.35 1015.46 1015.53 1015.72 1015.63 1015.59 1015.64 1015.95 1015.92 1016.10 1016.35
1005.81 1006.95 1007.56 1009.43 1011.08 1011.25 1010.48 1009.74 1008.33 1008.07 1007.95 1007.65 1007.53 1007.55 1008.65 1009.66 1010.48 1011.26 1011.18 1011.31 1011.47 1011.59 1011.55 1010.80 1011.57 1012.93 1013.54 1014.48 1014.60 1014.79 1014.91 1014.77 1014.25 1014.18 1014.42 1014.59 1014.63 1015.01 1015.16 1015.20 1015.12 1015.19 1015.42 1015.52 1015.58 1015.58 1015.57 1015.57 1015.61
1005.16 1006.41 1008.00 1009.48 1010.98 1011.60 1010.89 1010.40 1009.71 1008.94 1008.83 1008.36 1008.54 1008.95 1009.81 1010.53 1010.90 1011.50 1011.41 1011.46 1011.71 1011.94 1012.06 1011.78 1011.89 1012.55 1013.64 1013.49 1013.11 1013.80 1014.73 1014.65 1015.57 1014.30 1014.24 1014.31 1014.20 1014.30 1015.00 1014.81 1015.04 1015.33 1015.20 1015.50 1015.54 1015.61 1015.42 1015.51 1015.27
1006.17 1006.85 1008.39 1009.53 1010.61 1011.37 1011.32 1010.49 1008.88 1009.01 1008.94 1009.07 1009.36 1009.41 1010.12 1011.01 1011.68 1012.13 1011.99 1012.00 1011.81 1012.09 1012.52 1012.18 1012.05 1012.44 1012.72 1012.18 1012.49 1012.41 1012.69 1013.61 1015.13 1015.91 1014.40 1013.99 1013.90 1014.52 1014.76 1014.69 1014.83 1015.07 1015.19 1015.29 1015.38 1015.47 1015.34 1015.09 1015.00
1006.27 1006.84 1007.77 1009.64 1011.08 1011.41 1010.97 1009.54 1008.73 1009.29 1009.60 1009.85 1009.82 1009.92 1010.73 1011.53 1012.08 1012.32 1012.51 1012.44 1012.42 1012.59 1012.71 1012.51 1012.42 1012.70 1012.00 1011.70 1010.87 1010.30 1011.16 1012.28 1014.30 1016.17 1013.88 1013.72 1013.80 1014.11 1014.48 1014.78 1014.94 1014.74 1015.00 1015.16 1015.34 1015.25 1015.32 1015.13 1014.90
Wind_Speed
1 4 4 2 4 5 2 2 3 5 4 2 8 4 6 4 1 3 6 10 15 13 11 12 17 18 18 17 17 17 17 18 17 15 15 15 15 16 15 13 12 11 11 13 11 11 12 12 13
4 4 4 2 5 4 3 3 5 4 4 7 6 3 4 4 4 10 8 14 15 12 10 10 17 17 17 17 16 16 17 16 16 15 14 13 13 13 14 13 12 10 9 11 12 10 12 12 11
4 3 4 5 3 3 2 3 3 5 6 4 4 5 3 3 8 14 10 17 15 11 8 11 17 17 17 17 16 15 16 15 15 14 14 12 11 11 12 12 11 10 9 9 9 12 9 9 12
2 4 5 5 3 1 2 3 2 2 5 6 6 6 6 5 9 7 16 15 14 11 8 15 18 18 17 17 16 17 15 14 13 14 13 11 10 10 9 9 9 8 8 8 8 8 9 8 9
3 4 5 4 2 2 4 2 2 2 3 4 2 4 6 3 13 17 14 13 14 11 7 12 17 16 16 15 14 14 15 14 13 12 12 10 9 9 9 9 8 7 7 7 9 9 8 8 8
4 3 5 3 2 2 1 3 1 3 4 7 8 6 3 9 15 14 12 10 11 13 8 9 16 16 15 14 13 13 13 13 12 11 10 9 8 7 6 7 7 7 7 7 7 7 7 7 7
4 4 2 1 2 2 2 6 1 6 5 4 5 5 4 9 10 11 10 8 9 9 8 6 7 12 16 14 13 14 13 13 12 11 10 9 8 7 6 5 6 7 8 8 7 7 7 6 6
4 4 3 1 3 3 4 6 8 9 3 7 9 6 6 8 13 9 8 7 7 6 8 6 6 6 5 6 14 13 13 13 12 10 9 8 7 7 6 3 4 6 7 8 7 7 6 5 5
3 4 1 4 6 3 7 5 1 5 8 3 2 6 11 18 15 11 9 6 5 5 5 5 5 6 6 6 8 13 14 13 12 10 9 5 2 3 4 2 3 7 9 7 8 7 6 5 4
4 3 8 7 6 5 9 8 7 5 6 5 12 15 18 17 15 15 14 12 11 10 7 6 6 7 6 5 4 6 6 4 3 4 3 3 3 2 3 1 3 7 9 8 8 7 7 5 1
5 6 6 4 4 10 6 4 3 11 2 6 15 16 16 15 12 12 12 13 14 11 9 9 7 6 7 5 3 2 2 3 2 4 5 4 3 2 1 1 1 2 6 1 2 2 0 2 2
4 5 5 5 8 7 8 6 4 8 4 11 18 22 17 16 14 15 13 12 11 12 11 9 9 6 7 4 4 4 3 2 3 3 4 3 2 3 2 2 2 3 2 2 1 1 2 3 3
3 3 5 9 9 9 10 3 4 9 11 15 16 16 17 16 14 12 10 7 9 11 12 10 8 7 6 6 3 3 4 4 4 4 4 3 3 3 3 3 2 3 3 3 2 2 2 3 4
3 10 7 6 7 5 6 3 3 3 12 15 16 16 15 16 15 11 10 10 11 10 12 10 10 8 6 6 5 3 3 3 3 2 3 5 4 4 4 3 3 3 4 3 3 3 3 3 3
6 8 7 5 4 3 8 1 3 11 13 16 14 14 13 13 12 16 15 12 11 10 10 12 12 10 8 8 5 3 3 3 3 3 5 6 5 5 5 4 3 5 4 4 4 3 3 3 4
5 6 5 4 5 4 4 4 3 11 14 12 12 12 13 14 17 14 11 10 11 8 10 9 10 10 8 6 4 2 3 3 3 4 3 6 6 6 5 4 5 4 4 4 3 3 3 3 4
6 4 1 3 7 5 2 3 6 9 13 13 12 11 12 11 11 12 11 10 12 10 8 10 11 9 9 6 5 5 6 5 4 4 4 6 6 6 5 4 3 3 3 3 3 3 3 3 3
4 3 3 6 8 5 5 5 6 11 12 14 14 13 11 12 16 13 10 9 9 8 9 8 9 7 7 3 3 2 3 4 4 4 5 5 4 6 4 4 5 3 3 2 3 3 3 3 3
2 4 6 4 6 5 9 3 8 11 10 12 12 13 14 16 16 8 10 10 9 9 9 10 10 7 6 3 2 2 4 3 3 5 8 6 5 6 5 5 4 4 4 3 4 3 4 4 2
3 4 6 3 5 9 4 4 6 13 19 16 13 11 15 14 7 7 9 9 11 11 11 10 10 8 8 4 3 3 3 3 2 3 6 7 5 5 6 7 6 6 5 5 5 4 2 2 3
3 5 3 2 5 3 4 4 5 8 8 10 9 9 9 13 12 9 11 13 10 10 13 11 11 10 8 8 2 1 1 1 1 3 3 3 5 5 6 6 5 5 5 5 4 4 5 3 2
4 3 3 10 6 6 3 6 6 8 13 14 15 10 12 9 8 9 10 10 12 15 9 9 9 9 9 9 6 6 3 3 3 2 1 2 4 4 5 5 5 4 2 4 4 3 3 3 3
7 2 1 6 4 6 3 4 9 2 9 18 15 14 11 11 12 11 13 13 11 8 10 9 9 8 8 10 8 6 4 3 1 2 4 2 3 4 3 3 4 3 3 4 5 4 4 4 2
2 4 6 6 4 2 3 5 10 4 9 10 7 11 9 10 9 8 7 5 7 6 6 9 10 10 9 10 9 10 9 5 3 4 4 2 3 3 4 3 2 3 3 4 4 4 5 4 4
5 6 4 4 5 6 2 4 12 5 8 5 8 11 11 9 7 6 8 5 4 1 6 5 9 10 10 10 10 10 9 6 7 7 4 3 3 3 4 4 4 4 4 5 4 4 5 4 4
3 5 7 5 3 5 5 6 7 6 8 9 8 10 7 7 8 10 5 6 7 5 7 6 7 9 5 1 4 4 6 6 7 6 5 4 4 4 3 4 4 4 3 4 4 3 4 5 5
5 3 4 8 3 3 3 5 8 4 8 6 3 5 7 11 11 7 8 7 6 4 6 5 9 7 12 11 7 9 8 7 7 7 4 5 5 3 4 4 4 5 3 4 5 4 5 5 5
3 6 4 3 3 3 5 4 7 5 7 8 3 4 7 9 11 12 8 6 4 6 6 10 14 15 8 9 5 6 7 13 19 5 5 6 5 3 5 3 3 2 2 4 3 4 3 4 4
4 2 6 6 5 6 2 7 7 7 7 5 3 1 5 9 9 9 7 5 6 12 7 7 10 12 9 9 6 6 6 11 19 14 7 5 3 3 3 4 3 1 1 2 2 4 5 4 4
3 3 5 7 4 1 4 8 1 4 4 1 6 4 6 9 12 8 8 10 9 7 5 3 6 5 7 7 5 7 9 13 17 17 9 4 3 3 3 3 4 3 2 2 1 3 4 4 6
Wind_Direction
278 160 170 61 47 64 76 336 280 104 128 117 157 158 144 64 140 200 138 141 131 138 143 142 131 129 126 120 116 116 116 116 115 117 122 125 125 127 126 122 115 119 117 111 107 109 114 115 119
175 153 47 72 74 54 340 342 32 7 108 112 85 81 56 91 85 122 123 142 135 135 141 140 134 134 130 126 125 125 122 120 118 119 120 119 123 122 122 117 115 110 118 115 126 123 122 119 123
123 65 82 86 94 132 166 8 22 88 114 124 105 60 57 70 117 138 141 139 133 132 125 143 138 138 136 134 134 128 127 124 123 124 124 124 125 122 120 117 116 121 121 121 122 130 132 128 135
99 21 42 72 85 200 136 252 50 33 19 70 107 70 72 110 135 135 138 134 129 132 126 146 145 147 146 145 141 137 135 133 133 131 130 133 133 130 124 122 127 128 139 136 131 133 139 139 134
42 57 59 86 64 264 213 253 309 87 75 69 104 68 93 36 113 131 137 136 137 133 143 148 151 151 151 151 150 147 146 143 143 140 140 146 146 144 141 145 147 149 157 151 150 151 155 160 160
37 95 47 39 14 241 313 198 353 77 83 118 87 92 59 124 130 140 138 138 139 140 149 157 158 159 160 163 160 160 157 153 153 151 151 160 151 148 153 154 164 169 178 180 168 161 162 169 176
96 74 124 60 325 329 218 111 193 118 133 88 117 77 109 140 134 137 133 128 141 141 152 152 162 172 174 175 172 173 167 162 163 163 163 161 161 159 168 171 182 183 190 186 192 181 176 180 192
101 81 100 168 196 257 165 156 126 133 63 105 143 148 171 170 140 125 121 128 140 131 158 159 163 175 166 176 182 179 174 168 175 173 167 172 173 162 154 140 207 200 199 198 196 197 193 192 199
136 65 158 232 170 195 145 116 109 92 127 58 130 127 135 144 130 130 129 138 142 157 155 152 169 168 177 187 184 181 180 183 176 176 177 144 89 108 110 122 246 219 218 211 201 208 203 210 210
120 133 210 207 171 167 150 134 151 107 113 58 78 99 126 137 149 157 162 170 176 178 175 177 184 178 175 181 190 169 182 179 140 129 118 149 142 171 165 101 311 237 225 210 217 213 214 211 156
175 207 191 203 129 132 131 112 141 133 105 196 150 142 141 147 164 170 178 186 181 178 184 186 184 181 180 177 165 182 168 147 131 132 171 181 175 196 259 244 307 277 263 218 220 268 262 210 185
164 247 168 119 125 117 145 125 114 171 184 150 155 150 148 166 175 182 186 184 179 183 187 182 193 177 189 169 186 192 151 129 149 178 193 197 220 209 218 238 251 232 249 213 211 220 250 234 228
158 68 52 101 114 117 128 148 182 209 126 132 141 156 165 178 186 192 188 185 184 187 188 189 187 187 193 188 184 177 171 177 173 175 201 221 249 247 218 224 232 204 198 200 212 234 224 243 242
75 87 83 90 118 123 119 156 107 74 132 137 151 170 180 186 189 183 189 186 191 194 191 182 192 196 188 202 185 193 168 164 167 217 223 226 225 234 225 215 223 218 218 196 213 216 231 236 242
134 93 78 85 116 110 114 13 183 143 148 151 175 177 185 197 194 202 194 190 187 201 184 190 192 195 193 202 190 184 160 163 211 225 223 232 223 223 231 226 217 221 208 194 209 207 212 233 232
63 57 117 179 143 184 87 235 135 153 151 165 178 188 195 198 208 208 199 189 191 181 186 188 196 200 194 201 180 170 173 179 222 235 233 228 226 224 229 230 238 207 188 189 198 196 199 229 230
16 170 192 163 210 157 131 224 185 169 164 172 191 203 208 216 216 217 202 189 191 180 177 190 191 193 197 187 176 184 189 190 214 237 234 228 226 227 219 239 259 236 220 207 191 205 198 202 230
215 143 259 207 207 195 161 235 175 175 178 188 195 205 210 219 227 211 190 182 185 168 180 184 192 183 179 162 168 189 209 221 182 210 235 240 236 236 230 241 242 237 253 235 215 205 213 204 212
197 190 194 228 200 161 219 126 201 186 206 199 200 206 215 218 223 192 193 176 171 171 170 183 181 176 166 143 177 223 224 222 216 202 215 220 226 229 218 237 247 222 237 241 238 215 199 206 178
197 182 222 243 191 175 145 206 210 198 212 207 201 203 214 228 206 179 171 171 186 183 181 182 189 174 185 183 179 185 185 228 223 199 207 209 216 233 237 232 228 211 215 233 238 220 202 182 175
197 203 178 178 137 27 88 305 194 228 222 225 228 216 220 210 204 184 180 188 177 184 191 182 184 184 181 189 149 133 0 334 286 229 251 223 207 230 242 249 230 226 207 223 223 223 207 203 179
303 178 126 131 127 200 141 267 250 211 213 220 228 215 212 200 201 191 187 190 190 204 179 172 171 177 189 170 188 192 195 218 232 259 230 215 213 233 247 267 238 246 193 223 235 242 222 162 196
232 86 114 159 107 96 306 82 268 224 225 228 218 220 210 192 189 192 196 194 208 180 179 172 163 176 194 186 186 207 222 235 256 285 283 234 230 213 209 244 263 203 217 229 212 235 213 217 188
201 111 59 59 83 32 230 134 287 198 246 257 212 216 204 178 183 186 195 182 182 177 187 168 168 191 191 186 185 198 213 215 241 262 278 259 251 235 215 179 272 247 247 255 251 239 232 234 246
78 60 353 6 15 221 59 123 241 274 275 266 223 204 206 159 159 134 104 141 84 231 196 191 184 206 195 188 192 204 215 198 213 232 234 263 266 240 236 185 198 223 216 229 226 238 251 247 240
93 158 154 201 197 255 108 226 256 245 292 298 247 200 180 147 76 83 76 75 99 149 194 209 182 217 215 160 314 276 216 205 220 219 222 220 228 255 174 190 220 249 263 255 234 230 230 232 240
195 182 180 103 11 53 245 290 311 316 316 329 239 188 80 79 86 88 67 67 76 72 53 143 165 115 91 92 64 35 338 267 235 224 205 217 209 231 241 227 192 199 221 218 219 223 241 238 239
165 154 78 12 144 242 306 283 244 284 270 279 323 42 71 91 93 100 82 67 58 95 90 81 93 111 122 119 129 89 30 19 331 235 199 233 232 191 217 172 177 262 260 271 244 268 264 253 257
323 40 52 112 110 159 196 263 211 238 233 261 328 297 72 84 105 116 115 82 70 114 118 121 106 129 170 165 205 177 104 9 352 289 264 243 183 206 176 155 157 218 313 321 278 291 297 287 287
219 166 117 117 225 95 153 271 253 280 277 254 268 305 59 76 114 123 138 118 110 141 133 95 86 148 196 212 221 38 64 62 326 294 261 204 168 189 198 136 129 128 90 60 1 319 317 311 309